TimeMDT,TemperatureF,Dew PointF,Humidity,Sea Level PressureIn,VisibilityMPH,Wind Direction,Wind SpeedMPH,Gust SpeedMPH,PrecipitationIn,Events,Conditions,WindDirDegrees,DateUTC
12:15 AM,41.0,17.6,39,29.89,10.0,East,5.8,-,N/A,,Overcast,90,2013-05-23 06:15:00
12:35 AM,41.0,15.8,36,29.89,10.0,East,5.8,-,N/A,,Overcast,100,2013-05-23 06:35:00
12:55 AM,37.4,23.0,56,29.90,10.0,Calm,Calm,-,N/A,,Overcast,0,2013-05-23 06:55:00
1:15 AM,41.0,15.8,36,29.89,10.0,SE,8.1,-,N/A,,Overcast,130,2013-05-23 07:15:00
1:35 AM,39.2,17.6,42,29.90,10.0,ESE,8.1,-,N/A,,Overcast,120,2013-05-23 07:35:00
1:55 AM,39.2,15.8,39,29.89,10.0,SE,4.6,-,N/A,,Overcast,130,2013-05-23 07:55:00
2:15 AM,39.2,17.6,42,29.90,10.0,ESE,5.8,-,N/A,,Overcast,120,2013-05-23 08:15:00
2:35 AM,37.4,19.4,48,29.91,10.0,SE,5.8,-,N/A,,Overcast,140,2013-05-23 08:35:00
2:55 AM,39.2,14.0,36,29.91,10.0,SE,4.6,-,N/A,,Overcast,130,2013-05-23 08:55:00
3:15 AM,37.4,19.4,48,29.90,10.0,ENE,3.5,-,N/A,,Overcast,70,2013-05-23 09:15:00
3:35 AM,37.4,21.2,52,29.91,10.0,Calm,Calm,-,N/A,,Overcast,0,2013-05-23 09:35:00
3:55 AM,35.6,23.0,60,29.90,10.0,Calm,Calm,-,N/A,,Overcast,0,2013-05-23 09:55:00
4:15 AM,37.4,19.4,48,29.90,10.0,Calm,Calm,-,N/A,,Mostly Cloudy,0,2013-05-23 10:15:00
4:35 AM,35.6,23.0,60,29.90,10.0,Calm,Calm,-,N/A,,Scattered Clouds,0,2013-05-23 10:35:00
4:55 AM,35.6,23.0,60,29.90,10.0,Calm,Calm,-,N/A,,Clear,0,2013-05-23 10:55:00
5:15 AM,33.8,28.4,81,29.91,10.0,Calm,Calm,-,N/A,,Clear,0,2013-05-23 11:15:00
5:35 AM,32.0,28.4,87,29.90,10.0,Calm,Calm,-,N/A,,Clear,0,2013-05-23 11:35:00
5:55 AM,32.0,30.2,93,29.91,10.0,SSE,3.5,-,N/A,,Clear,150,2013-05-23 11:55:00
6:15 AM,33.8,23.0,65,29.91,10.0,ESE,5.8,-,N/A,,Clear,110,2013-05-23 12:15:00
6:35 AM,32.0,24.8,75,29.92,10.0,Calm,Calm,-,N/A,,Clear,0,2013-05-23 12:35:00
6:47 AM,33.8,21.2,60,29.92,10.0,SSW,5.8,-,N/A,,Scattered Clouds,210,2013-05-23 12:47:00
6:55 AM,32.0,23.0,69,29.92,10.0,NNW,4.6,-,N/A,,Clear,330,2013-05-23 12:55:00
7:47 AM,35.6,21.2,56,29.93,10.0,Calm,Calm,-,N/A,,Partly Cloudy,0,2013-05-23 13:47:00
8:47 AM,39.2,15.8,39,29.91,10.0,Calm,Calm,-,N/A,,Partly Cloudy,0,2013-05-23 14:47:00
9:47 AM,44.6,17.6,34,29.91,10.0,SE,8.1,-,N/A,,Partly Cloudy,130,2013-05-23 15:47:00
10:47 AM,46.4,24.8,43,29.90,10.0,SE,17.3,-,N/A,,Partly Cloudy,130,2013-05-23 16:47:00
11:47 AM,50.0,21.2,32,29.88,10.0,SE,8.1,-,N/A,,Clear,130,2013-05-23 17:47:00
12:47 PM,51.8,23.0,33,29.86,10.0,SSE,11.5,-,N/A,,Partly Cloudy,150,2013-05-23 18:47:00
1:47 PM,53.6,21.2,28,29.85,10.0,SE,11.5,-,N/A,,Partly Cloudy,130,2013-05-23 19:47:00
2:47 PM,55.4,12.2,18,29.84,10.0,ESE,6.9,-,N/A,,Scattered Clouds,110,2013-05-23 20:47:00
3:50 PM,57.2,15.8,20,29.84,10.0,SE,10.4,-,N/A,,Overcast,130,2013-05-23 21:50:00
4:55 PM,59.0,17.6,20,29.84,10.0,SSE,9.2,-,N/A,,Mostly Cloudy,160,2013-05-23 22:55:00
5:50 PM,55.4,15.8,21,29.85,10.0,SSW,6.9,-,N/A,,Mostly Cloudy,210,2013-05-23 23:50:00
7:47 PM,55.4,15.8,21,29.87,10.0,SSW,5.8,-,N/A,,Mostly Cloudy,200,2013-05-24 01:47:00
8:47 PM,53.6,12.2,19,29.88,10.0,SSW,6.9,17.3,N/A,,Mostly Cloudy,210,2013-05-24 02:47:00
9:47 PM,51.8,14.0,22,29.89,10.0,WSW,3.5,-,N/A,,Scattered Clouds,240,2013-05-24 03:47:00
10:47 PM,44.6,21.2,39,29.93,10.0,South,3.5,-,N/A,,Scattered Clouds,190,2013-05-24 04:47:00
11:15 PM,44.6,21.2,39,29.93,10.0,Calm,Calm,-,N/A,,Clear,0,2013-05-24 05:15:00
11:35 PM,42.8,21.2,42,29.94,10.0,Calm,Calm,-,N/A,,Clear,0,2013-05-24 05:35:00
11:55 PM,42.8,21.2,42,29.95,10.0,NNW,4.6,-,N/A,,Clear,330,2013-05-24 05:55:00